Погода в Аскино

Россия / Республика Башкортостан     56°05′08″N   56°34′43″E
темп.,
°C
ветер,
м/с
пор.,
м/с
влажн.,
%
обл.,
%
осадки,
мм/ч
давл.,
гПа
погр.,
м
20 апреля, вт
вт2023:000в35520 0.0 103381
02:00−1юв23510 0.0 103452
05:00−1юв11474 0.0 103510
08:00+1в123860 0.0 1036148
11:00+4в12295 0.0 1035955
14:00+6с11282 0.0 10341258
17:00+8сз222835 0.0 10331265
20:00+6ссз22410 0.0 103211
21 апреля, ср
ср2123:00+4зсз11440 0.0 103310
02:00+2всв22490 0.0 103210
05:00+1ю11550 0.0 103310
08:00+4юв22484 0.0 1033116
11:00+8ю333899 0.0 1032786
14:00+11ююв3433100 0.0 10311165
17:00+12ююв4533100 0.0 10301261
20:00+9ююв3349100 0.0 102936
22 апреля, чт
чт2223:00+7юв3560100 0.0 102968
02:00+5ююв31063100 0.0 1030217
05:00+6ю51259100 0.1 1030476
08:00+6ю61164100 0.1 1030697
11:00+9ю7104597 0.1 10301176
14:00+11ююз81137100 0.0 10301580
17:00+9ююз61247100 0.0 10301718
20:00+6ю71476100 0.0 10321143
23 апреля, пт
пт2323:00+5ююз31085100 0.1 1031575
02:00+5ю4986100 0.0 1030773
05:00+4ю5997100 1.3 1030692
08:00+4ю4897100 1.6 1030711
11:00+4ююв3797100 2.1 1029881
14:00+5ю3690100 0.2 1029612
17:00+6ююв3486100 0.3 1029455
20:00+6в2389100 0.0 102897
24 апреля, сб
сб2423:00+4всв3391100 0.0 102640
02:00+4всв3491100 0.0 102576
05:00+4вюв2392100 0.0 102350
08:00+5ююв2497100 0.4 1021118
11:00+5в2497100 1.4 1019141
14:00+6в2491100 0.5 1018264
17:00+6вюв3590100 1.3 1017338
20:00+6в4894100 0.7 1016352